Location: Dugenta
(41.1333°N, 14.4500°E)
Time: 13:36:30
(UTC+00:00)

FALCON 9 DEB - Pass Details

Date: 03 March 2021
Orbit: 424 x 435 km, 53.0° (Epoch: 13 April)

Event Time Altitude Azimuth Distance (km) Brightness Sun altitude
Rises 18:22:48 0° 312° (NW) 2,401 7.8 -17.2°
Reaches altitude 10° 18:25:01 10° 321° (NW) 1,529 6.5 -17.6°
Maximum altitude 18:28:15 38° 31° (NNE) 672 3.8 -18.2°
Enters shadow 18:28:20 38° 35° (NE) 673 3.8 -18.2°
